Tracking 18844 objects as of 21-Nov-2017
HD Live streaming from Space Station
objects crossing your sky now

IRIDIUM 33 DEB

Track IRIDIUM 33 DEB now!
10-day predictions


NORAD ID: 34150
Int'l Code: 1997-051ED
Perigee: 659.1 km
Apogee: 776.9 km
Inclination: 86.5 °
Period: 99.0 minutes
Semi major axis: 7088 km
RCS: 0.0227 m2 (small)
Launch date: September 14, 1997
Source: United States (US)
Launch site: TYURATAM MISSILE AND SPACE COMPLEX (TTMTR)

Note: This is SATELLITE DEBRIS
aabbcc
Your satellite tracking list
Your tracking list is empty




NASA's NSSDC Master Catalog

Two Line Element Set (TLE):
1 34150U 97051ED  17324.85078869 +.00004974 +00000-0 +11087-2 0  9996
2 34150 086.4802 260.4571 0083111 107.0148 306.6172 14.54548790458440
Source of the keplerian elements: AFSPC